******** Week 151 almanac for PRN-1 ******** ID: 1 Health: 0 Eccentricity: 0.01148843765 Time of Applicability(s): 589824 Orbital Inclination(rad): 0.9870591127 Rate of Right Ascen(r/s): -7.566029441e-09 SQRT(A) (m 1/2): 5153.628418 Right Ascen at Week(rad): -2.164501945 Argument of Perigee(rad): 0.8830220343 Mean Anom(rad): -0.5178776816 Af0(s): 0.000328602002 Af1(s/s): -1.091394e-11 week: 151 ******** Week 151 almanac for PRN-2 ******** ID: 2 Health: 0 Eccentricity: 0.02060461044 Time of Applicability(s): 589824 Orbital Inclination(rad): 0.9653916341 Rate of Right Ascen(r/s): -7.726036106e-09 SQRT(A) (m 1/2): 5153.659668 Right Ascen at Week(rad): -2.254134585 Argument of Perigee(rad): -1.435054757 Mean Anom(rad): -0.3820585882 Af0(s): -0.0005155132324 Af1(s/s): 0 week: 151 ******** Week 151 almanac for PRN-3 ******** ID: 3 Health: 0 Eccentricity: 0.003917217255 Time of Applicability(s): 589824 Orbital Inclination(rad): 0.9724862952 Rate of Right Ascen(r/s): -8.103194673e-09 SQRT(A) (m 1/2): 5153.61084 Right Ascen at Week(rad): -1.129285872 Argument of Perigee(rad): 0.9499434443 Mean Anom(rad): -1.662292889 Af0(s): -0.0001183268677 Af1(s/s): -1.818989e-11 week: 151 ******** Week 151 almanac for PRN-4 ******** ID: 4 Health: 0 Eccentricity: 0.001736164093 Time of Applicability(s): 589824 Orbital Inclination(rad): 0.9615986269 Rate of Right Ascen(r/s): -7.886042771e-09 SQRT(A) (m 1/2): 5153.597656 Right Ascen at Week(rad): -0.04788709021 Argument of Perigee(rad): -3.032394645 Mean Anom(rad): 1.239399178 Af0(s): -0.0001469664917 Af1(s/s): 3.637979e-12 week: 151 ******** Week 151 almanac for PRN-5 ******** ID: 5 Health: 0 Eccentricity: 0.00586938858 Time of Applicability(s): 589824 Orbital Inclination(rad): 0.9594834112 Rate of Right Ascen(r/s): -8.240343243e-09 SQRT(A) (m 1/2): 5153.616699 Right Ascen at Week(rad): -1.169949471 Argument of Perigee(rad): 1.007702914 Mean Anom(rad): 2.139208489 Af0(s): -5.803292236e-05 Af1(s/s): 0 week: 151 ******** Week 151 almanac for PRN-6 ******** ID: 6 Health: 0 Eccentricity: 0.00269317627 Time of Applicability(s): 589824 Orbital Inclination(rad): 0.986435933 Rate of Right Ascen(r/s): -7.577458489e-09 SQRT(A) (m 1/2): 5153.640137 Right Ascen at Week(rad): -2.172772184 Argument of Perigee(rad): -0.9305413587 Mean Anom(rad): -0.2168815143 Af0(s): 0.0001748524414 Af1(s/s): 1.091394e-11 week: 151 ******** Week 151 almanac for PRN-7 ******** ID: 7 Health: 0 Eccentricity: 0.01563644409 Time of Applicability(s): 589824 Orbital Inclination(rad): 0.9510225484 Rate of Right Ascen(r/s): -7.886042771e-09 SQRT(A) (m 1/2): 5153.639648 Right Ascen at Week(rad): 0.9704967645 Argument of Perigee(rad): -2.288125592 Mean Anom(rad): -1.190188205 Af0(s): 0.0002487125244 Af1(s/s): 3.637979e-12 week: 151 ******** Week 151 almanac for PRN-8 ******** ID: 8 Health: 0 Eccentricity: 0.007364749908 Time of Applicability(s): 589824 Orbital Inclination(rad): 0.9647384938 Rate of Right Ascen(r/s): -7.943188008e-09 SQRT(A) (m 1/2): 5153.679199 Right Ascen at Week(rad): 3.039031284 Argument of Perigee(rad): 0.1200736944 Mean Anom(rad): 1.724450195 Af0(s): -4.59741333e-05 Af1(s/s): 0 week: 151 ******** Week 151 almanac for PRN-9 ******** ID: 9 Health: 0 Eccentricity: 0.002201080322 Time of Applicability(s): 589824 Orbital Inclination(rad): 0.9545758711 Rate of Right Ascen(r/s): -7.977475151e-09 SQRT(A) (m 1/2): 5153.559082 Right Ascen at Week(rad): -0.1009704654 Argument of Perigee(rad): 1.880036893 Mean Anom(rad): 2.109946757 Af0(s): -0.0002773521484 Af1(s/s): 3.637979e-12 week: 151 ******** Week 151 almanac for PRN-10 ******** ID: 10 Health: 0 Eccentricity: 0.007533073425 Time of Applicability(s): 589824 Orbital Inclination(rad): 0.9723185161 Rate of Right Ascen(r/s): -8.091765626e-09 SQRT(A) (m 1/2): 5153.62207 Right Ascen at Week(rad): -1.132068459 Argument of Perigee(rad): -2.503937139 Mean Anom(rad): -2.559980618 Af0(s): -0.0002675543823 Af1(s/s): -1.091394e-11 week: 151 ******** Week 151 almanac for PRN-11 ******** ID: 11 Health: 255 Eccentricity: 0.0002732276916 Time of Applicability(s): 589824 Orbital Inclination(rad): 0.9621558934 Rate of Right Ascen(r/s): -7.817468486e-09 SQRT(A) (m 1/2): 5153.732422 Right Ascen at Week(rad): -2.121169984 Argument of Perigee(rad): 2.787980123 Mean Anom(rad): 1.671016655 Af0(s): -5.577189941e-05 Af1(s/s): 1.091394e-11 week: 151 ******** Week 151 almanac for PRN-12 ******** ID: 12 Health: 0 Eccentricity: 0.008725643158 Time of Applicability(s): 589824 Orbital Inclination(rad): 0.9697778604 Rate of Right Ascen(r/s): -8.148910863e-09 SQRT(A) (m 1/2): 5153.533691 Right Ascen at Week(rad): 2.083695313 Argument of Perigee(rad): 1.255073046 Mean Anom(rad): -1.835670168 Af0(s): -0.0001424444458 Af1(s/s): -7.275958e-12 week: 151 ******** Week 151 almanac for PRN-13 ******** ID: 13 Health: 0 Eccentricity: 0.00581073761 Time of Applicability(s): 589824 Orbital Inclination(rad): 0.969064799 Rate of Right Ascen(r/s): -7.760323248e-09 SQRT(A) (m 1/2): 5153.628906 Right Ascen at Week(rad): 0.05210329033 Argument of Perigee(rad): 0.9505812297 Mean Anom(rad): 1.185316992 Af0(s): 0.0002147971802 Af1(s/s): 7.275958e-12 week: 151 ******** Week 151 almanac for PRN-14 ******** ID: 14 Health: 0 Eccentricity: 0.001519680023 Time of Applicability(s): 589824 Orbital Inclination(rad): 0.9531797089 Rate of Right Ascen(r/s): -8.331775623e-09 SQRT(A) (m 1/2): 5153.589844 Right Ascen at Week(rad): 2.052092537 Argument of Perigee(rad): 3.019728442 Mean Anom(rad): -1.770430295 Af0(s): -7.159906006e-05 Af1(s/s): -3.637979e-12 week: 151 ******** Week 151 almanac for PRN-15 ******** ID: 15 Health: 0 Eccentricity: 0.01394462585 Time of Applicability(s): 589824 Orbital Inclination(rad): 0.9303917053 Rate of Right Ascen(r/s): -8.297488481e-09 SQRT(A) (m 1/2): 5153.688965 Right Ascen at Week(rad): -0.2074604155 Argument of Perigee(rad): 1.078712817 Mean Anom(rad): 0.7397805861 Af0(s): -6.255496826e-05 Af1(s/s): 3.637979e-12 week: 151 ******** Week 151 almanac for PRN-16 ******** ID: 16 Health: 0 Eccentricity: 0.01278877258 Time of Applicability(s): 589824 Orbital Inclination(rad): 0.9697299235 Rate of Right Ascen(r/s): -8.160339911e-09 SQRT(A) (m 1/2): 5153.556152 Right Ascen at Week(rad): 2.102309061 Argument of Perigee(rad): 0.7149402839 Mean Anom(rad): 2.592937986 Af0(s): -0.0003768371582 Af1(s/s): -3.637979e-12 week: 151 ******** Week 151 almanac for PRN-17 ******** ID: 17 Health: 0 Eccentricity: 0.01355314255 Time of Applicability(s): 589824 Orbital Inclination(rad): 0.9799225068 Rate of Right Ascen(r/s): -7.726036106e-09 SQRT(A) (m 1/2): 5153.724121 Right Ascen at Week(rad): 3.121162547 Argument of Perigee(rad): -1.495162761 Mean Anom(rad): 1.639906356 Af0(s): 0.0004612486816 Af1(s/s): 3.637979e-12 week: 151 ******** Week 151 almanac for PRN-18 ******** ID: 18 Health: 0 Eccentricity: 0.002119064331 Time of Applicability(s): 589824 Orbital Inclination(rad): 0.9708444564 Rate of Right Ascen(r/s): -7.748894201e-09 SQRT(A) (m 1/2): 5153.572266 Right Ascen at Week(rad): -2.156960872 Argument of Perigee(rad): 3.091356657 Mean Anom(rad): -0.2929180508 Af0(s): 0.0001793744873 Af1(s/s): -7.275958e-12 week: 151 ******** Week 151 almanac for PRN-19 ******** ID: 19 Health: 0 Eccentricity: 0.009003162384 Time of Applicability(s): 589824 Orbital Inclination(rad): 0.9787001159 Rate of Right Ascen(r/s): -7.703178011e-09 SQRT(A) (m 1/2): 5153.644043 Right Ascen at Week(rad): -3.117184159 Argument of Perigee(rad): 2.015523049 Mean Anom(rad): -2.225179199 Af0(s): 0.0001002386841 Af1(s/s): 3.637979e-12 week: 151 ******** Week 151 almanac for PRN-20 ******** ID: 20 Health: 0 Eccentricity: 0.005087852478 Time of Applicability(s): 589824 Orbital Inclination(rad): 0.9416988215 Rate of Right Ascen(r/s): -8.388920861e-09 SQRT(A) (m 1/2): 5153.697754 Right Ascen at Week(rad): -1.284365487 Argument of Perigee(rad): -3.13728882 Mean Anom(rad): 0.4767279728 Af0(s): 0.0004084914795 Af1(s/s): 0 week: 151 ******** Week 151 almanac for PRN-21 ******** ID: 21 Health: 0 Eccentricity: 0.02457332611 Time of Applicability(s): 589824 Orbital Inclination(rad): 0.9596511904 Rate of Right Ascen(r/s): -7.737465153e-09 SQRT(A) (m 1/2): 5153.529297 Right Ascen at Week(rad): -2.255885405 Argument of Perigee(rad): -0.9919234351 Mean Anom(rad): 1.843146827 Af0(s): 0.0001258636108 Af1(s/s): 0 week: 151 ******** Week 151 almanac for PRN-22 ******** ID: 22 Health: 0 Eccentricity: 0.01301908493 Time of Applicability(s): 589824 Orbital Inclination(rad): 0.9617604139 Rate of Right Ascen(r/s): -7.817468486e-09 SQRT(A) (m 1/2): 5153.615234 Right Ascen at Week(rad): 0.0004186988578 Argument of Perigee(rad): -1.86957766 Mean Anom(rad): 1.531527018 Af0(s): 0.00017635979 Af1(s/s): 7.275958e-12 week: 151 ******** Week 151 almanac for PRN-23 ******** ID: 23 Health: 0 Eccentricity: 0.00199508667 Time of Applicability(s): 589824 Orbital Inclination(rad): 0.9673630391 Rate of Right Ascen(r/s): -8.148910863e-09 SQRT(A) (m 1/2): 5153.644531 Right Ascen at Week(rad): -1.157028978 Argument of Perigee(rad): 2.984281352 Mean Anom(rad): -1.256006317 Af0(s): -3.014697266e-06 Af1(s/s): -3.637979e-12 week: 151 ******** Week 151 almanac for PRN-24 ******** ID: 24 Health: 0 Eccentricity: 0.01236057281 Time of Applicability(s): 589824 Orbital Inclination(rad): 0.9345741998 Rate of Right Ascen(r/s): -8.000333246e-09 SQRT(A) (m 1/2): 5153.644531 Right Ascen at Week(rad): 0.8874355997 Argument of Perigee(rad): 0.8103309691 Mean Anom(rad): -0.2241653015 Af0(s): 0.0002140435059 Af1(s/s): -3.637979e-12 week: 151 ******** Week 151 almanac for PRN-25 ******** ID: 25 Health: 0 Eccentricity: 0.01054906845 Time of Applicability(s): 589824 Orbital Inclination(rad): 0.9572004164 Rate of Right Ascen(r/s): -8.286059433e-09 SQRT(A) (m 1/2): 5153.643555 Right Ascen at Week(rad): 2.006708652 Argument of Perigee(rad): 0.9878982336 Mean Anom(rad): -2.103228101 Af0(s): 0.0002328853638 Af1(s/s): 3.637979e-12 week: 151 ******** Week 151 almanac for PRN-26 ******** ID: 26 Health: 0 Eccentricity: 0.006903648376 Time of Applicability(s): 589824 Orbital Inclination(rad): 0.9380556171 Rate of Right Ascen(r/s): -8.468924193e-09 SQRT(A) (m 1/2): 5153.646484 Right Ascen at Week(rad): 1.959338756 Argument of Perigee(rad): 0.3793400416 Mean Anom(rad): -2.757853654 Af0(s): 0.0001492275146 Af1(s/s): 3.637979e-12 week: 151 ******** Week 151 almanac for PRN-27 ******** ID: 27 Health: 0 Eccentricity: 0.01034212112 Time of Applicability(s): 589824 Orbital Inclination(rad): 0.9734630096 Rate of Right Ascen(r/s): -7.817468486e-09 SQRT(A) (m 1/2): 5153.60498 Right Ascen at Week(rad): 3.058598527 Argument of Perigee(rad): 0.6460744335 Mean Anom(rad): 1.699366837 Af0(s): 0.0001138048218 Af1(s/s): 1.455192e-11 week: 151 ******** Week 151 almanac for PRN-29 ******** ID: 29 Health: 0 Eccentricity: 0.001885414124 Time of Applicability(s): 589824 Orbital Inclination(rad): 0.9819418487 Rate of Right Ascen(r/s): -7.726036106e-09 SQRT(A) (m 1/2): 5153.699219 Right Ascen at Week(rad): 3.134207751 Argument of Perigee(rad): 2.243097114 Mean Anom(rad): 1.832154671 Af0(s): -0.0003851275757 Af1(s/s): -3.637979e-12 week: 151 ******** Week 151 almanac for PRN-30 ******** ID: 30 Health: 0 Eccentricity: 0.005588054657 Time of Applicability(s): 589824 Orbital Inclination(rad): 0.9361800859 Rate of Right Ascen(r/s): -8.046049436e-09 SQRT(A) (m 1/2): 5153.520996 Right Ascen at Week(rad): 0.9833449771 Argument of Perigee(rad): -2.736531096 Mean Anom(rad): -1.142065924 Af0(s): -0.0004084914795 Af1(s/s): -3.637979e-12 week: 151 ******** Week 151 almanac for PRN-31 ******** ID: 31 Health: 0 Eccentricity: 0.01044130325 Time of Applicability(s): 589824 Orbital Inclination(rad): 0.9552290114 Rate of Right Ascen(r/s): -7.851755628e-09 SQRT(A) (m 1/2): 5153.652344 Right Ascen at Week(rad): 0.9886603554 Argument of Perigee(rad): 0.3798984316 Mean Anom(rad): -1.644777195 Af0(s): -0.0001326466797 Af1(s/s): 0 week: 151 ******** Week 151 almanac for PRN-32 ******** ID: 32 Health: 0 Eccentricity: 0.005719184875 Time of Applicability(s): 589824 Orbital Inclination(rad): 0.9584347915 Rate of Right Ascen(r/s): -7.897471818e-09 SQRT(A) (m 1/2): 5153.523438 Right Ascen at Week(rad): -0.08969181176 Argument of Perigee(rad): -2.329187666 Mean Anom(rad): 2.324981952 Af0(s): -6.255496826e-05 Af1(s/s): -7.275958e-12 week: 151